Location: Stockholm
(59.3330°N, 18.0500°E)
Time: 00:28:32
(UTC+02:00)

NOAA 18 - Pass Details

Date: 04 April 2023
Orbit: 838 x 860 km, 98.9° (Epoch: 02 June)

Event Time Altitude Azimuth Distance (km) Brightness Sun altitude
Exits shadow 20:47:48 12° 113° (ESE) 2,393 6.9 -9.3°
Maximum altitude 20:52:24 34° 53° (NE) 1,402 6.2 -9.8°
Drops below altitude 10° 20:57:20 10° 351° (N) 2,511 8.3 -10.3°
Sets 20:59:54 0° 342° (NNW) 3,449 9.2 -10.6°
